This demonstration page uses our WeatherBlox Daily Observations layout. Learn more.

Left ArrowRight Arrow

Hourly Observations for September 11, 2022

Temp ( °F °C ) Dew Point ( °F °C ) Humidity (%) Winds ( mph kmh ) Pressure ( in mb ) Visibility ( mi km ) Precip ( " mm )
12:55 am 00:55 Clear 54 12 50 10.2 89 89 NW 8 13 30.26 1025 10 16 0.00 0.00
1:55 am 01:55 Clear 53 11.4 49 9.3 87 87 WNW 5 7 30.24 1024 10 16 0.00 0.00
2:55 am 02:55 Clear 52 11 48 9.1 88 88 NW 6 9 30.24 1024 10 16 0.00 0.00
3:55 am 03:55 Clear 50 10.2 47 8.1 87 87 Calm 30.25 1025 10 16 0.00 0.00
4:55 am 04:55 Clear 50 10.1 46 7.9 86 86 Calm 30.26 1025 10 16 0.00 0.00
5:55 am 05:55 Clear 50 9.9 47 8.2 89 89 NW 6 9 30.26 1025 10 16 0.00 0.00
6:55 am 06:55 Clear 49 9.6 46 7.7 88 88 Calm 30.26 1025 10 16 0.00 0.00
7:55 am 07:55 Mostly Sunny 51 10.3 47 8.1 86 86 WNW 5 7 30.27 1025 10 16 0.00 0.00
8:55 am 08:55 Mostly Sunny 54 12.4 47 8.3 76 76 W 3 6 30.27 1025 10 16 0.00 0.00
9:55 am 09:55 Sunny 60 15.8 49 9.2 65 65 NW 6 9 30.27 1025 10 16 0.00 0.00
10:55 am 10:55 Sunny 66 19.1 52 11.1 60 60 WNW 5 7 30.27 1025 10 16 0.00 0.00
11:55 am 11:55 Sunny 71 21.5 49 9.4 46 46 WNW 7 11 30.26 1025 10 16 0.00 0.00
12:55 pm 12:55 Mostly Sunny 74 23.4 43 6.2 33 33 NW 6 9 30.24 1024 10 16 0.00 0.00
1:55 pm 13:55 Mostly Sunny 75 24 41 4.9 29 29 NW 9 15 30.22 1024 10 16 0.00 0.00
2:55 pm 14:55 Mostly Sunny 76 24.4 38 3.6 26 26 N 8 13 30.20 1023 10 16 0.00 0.00
3:55 pm 15:55 Mostly Sunny 77 24.8 38 3.4 25 25 NW 6 9 30.18 1022 10 16 0.00 0.00
4:55 pm 16:55 Sunny 77 24.8 39 4 26 26 NW 7 11 30.15 1021 10 16 0.00 0.00
5:55 pm 17:55 Mostly Sunny 76 24.3 40 4.6 28 28 WNW 10 17 30.14 1021 10 16 0.00 0.00
6:55 pm 18:55 Sunny 73 22.9 42 5.3 32 32 W 3 6 30.14 1021 10 16 0.00 0.00
7:55 pm 19:55 Clear 70 21.1 40 4.6 34 34 WNW 3 6 30.13 1020 10 16 0.00 0.00
8:55 pm 20:55 Clear 65 18.1 48 8.9 55 55 WNW 3 6 30.14 1021 10 16 0.00 0.00
9:55 pm 21:55 Clear 62 16.9 47 8.1 56 56 Calm 30.14 1021 10 16 0.00 0.00
10:55 pm 22:55 Clear 59 14.8 47 8.3 65 65 Calm 30.13 1020 10 16 0.00 0.00
11:55 pm 23:55 Clear 57 13.9 48 9.1 73 73 Calm 30.12 1020 10 16 0.00 0.00

Powered by AerisWeather